| time (UTC) | temp C | wind direction | speed KPH | gust KPH | rain 1hr cm | rain 24hr cm | rain mn cm | humidity % | barometer mb |
| 20260505012409 | 10 | 9 | 9.7 | 12.9 | 0.10 | 0.00 | 0.00 | 99 | 1011.8 |
| 20260505010909 | 10 | 15 | 9.7 | 17.7 | 0.08 | 0.00 | 0.00 | 99 | 1011.9 |
| 20260505005409 | 10 | 13 | 9.7 | 17.7 | 0.05 | 0.00 | 0.00 | 99 | 1011.9 |
| 20260505003909 | 10 | 9 | 9.7 | 17.7 | 0.05 | 0.00 | 0.00 | 98 | 1012.1 |
| 20260505002409 | 10 | 3 | 9.7 | 17.7 | 0.03 | 0.00 | 0.00 | 98 | 1012.3 |
| 20260505000908 | 10 | 0 | 9.7 | 17.7 | 0.05 | 0.00 | 0.00 | 97 | 1012.3 |
| 20260504235408 | 10 | 11 | 9.7 | 17.7 | 0.10 | 0.00 | 0.00 | 97 | 1012.4 |
| 20260504233907 | 11 | 9 | 9.7 | 12.9 | 0.03 | 0.00 | 0.00 | 97 | 1012.5 |
| 20260504232406 | 11 | 0 | 6.4 | 12.9 | 0.03 | 0.00 | 0.00 | 98 | 1012.6 |
| 20260504230906 | 11 | 10 | 9.7 | 12.9 | 0.00 | 0.00 | 0.00 | 98 | 1012.6 |
| 20260504225406 | 11 | 11 | 6.4 | 17.7 | 0.00 | 0.00 | 0.00 | 98 | 1012.6 |
| 20260504223906 | 11 | 24 | 9.7 | 17.7 | 0.03 | 0.00 | 0.00 | 98 | 1012.6 |
| 20260504222406 | 11 | 18 | 9.7 | 12.9 | 0.03 | 0.00 | 0.00 | 97 | 1012.7 |
| 20260504220905 | 12 | 15 | 6.4 | 12.9 | 0.08 | 0.00 | 0.00 | 98 | 1012.9 |
| 20260504215405 | 12 | 24 | 9.7 | 17.7 | 0.08 | 0.00 | 0.00 | 97 | 1012.9 |
| 20260504213904 | 12 | 10 | 9.7 | 12.9 | 0.03 | 0.00 | 0.00 | 97 | 1013.0 |
| 20260504212403 | 12 | 4 | 9.7 | 12.9 | 0.08 | 0.00 | 0.00 | 97 | 1013.0 |
| 20260504210903 | 12 | 23 | 9.7 | 12.9 | 0.13 | 0.00 | 0.00 | 96 | 1013.1 |
| 20260504205403 | 13 | 15 | 9.7 | 12.9 | 0.13 | 0.00 | 0.00 | 96 | 1013.1 |
| 20260504203903 | 13 | 16 | 6.4 | 9.7 | 0.18 | 0.00 | 0.00 | 97 | 1013.1 |
| 20260504202402 | 13 | 13 | 3.2 | 6.4 | 0.43 | 0.00 | 0.00 | 98 | 1013.0 |
| 20260504200901 | 13 | 1 | 3.2 | 6.4 | 0.23 | 0.00 | 0.00 | 98 | 1013.0 |
| 20260504195402 | 13 | 19 | 3.2 | 6.4 | 0.46 | 0.00 | 0.00 | 99 | 1013.0 |
| 20260504193900 | 13 | 66 | 3.2 | 6.4 | 1.68 | 0.00 | 0.00 | 95 | 1013.0 |
| 20260504192400 | 15 | 38 | 3.2 | 12.9 | 0.08 | 0.00 | 0.00 | 93 | 1013.0 |
| 20260504190901 | 15 | 26 | 9.7 | 20.9 | 0.00 | 0.00 | 0.00 | 90 | 1012.5 |
| 20260504185400 | 15 | 33 | 9.7 | 20.9 | 0.00 | 0.00 | 0.00 | 88 | 1012.4 |
| 20260504183900 | 15 | 9 | 9.7 | 20.9 | 0.00 | 0.00 | 0.00 | 87 | 1012.4 |
| 20260504182359 | 15 | 9 | 12.9 | 20.9 | 0.00 | 0.00 | 0.00 | 85 | 1012.4 |
| 20260504180858 | 15 | 9 | 6.4 | 17.7 | 0.00 | 0.00 | 0.00 | 85 | 1012.3 |
| 20260504175357 | 15 | 28 | 12.9 | 17.7 | 0.00 | 0.00 | 0.00 | 84 | 1012.3 |
| 20260504173856 | 15 | 16 | 9.7 | 17.7 | 0.00 | 0.00 | 0.00 | 83 | 1012.2 |
| 20260504172355 | 16 | 7 | 9.7 | 17.7 | 0.00 | 0.00 | 0.00 | 81 | 1012.2 |
| 20260504170855 | 16 | 350 | 12.9 | 17.7 | 0.00 | 0.00 | 0.00 | 79 | 1012.2 |
| 20260504150851 | 17 | 355 | 6.4 | 9.7 | 0.00 | 0.00 | 0.00 | 68 | 1012.3 |
| 20260504140850 | 18 | 98 | 3.2 | 3.2 | 0.00 | 0.00 | 0.00 | 67 | 1012.7 |
| 20260504080841 | 15 | 174 | 3.2 | 9.7 | 0.00 | 0.00 | 0.00 | 88 | 1013.2 |
| 20260504045332 | 10 | 254 | 0.0 | 0.0 | 0.00 | 0.00 | 0.00 | 99 | 1012.3 |
| 20260504043832 | 10 | 254 | 0.0 | 0.0 | 0.00 | 0.00 | 0.00 | 99 | 1012.4 |
| 20260504042331 | 10 | 197 | 3.2 | 6.4 | 0.00 | 0.00 | 0.00 | 99 | 1012.4 |
| 20260504040832 | 10 | 182 | 3.2 | 6.4 | 0.00 | 0.00 | 0.00 | 99 | 1012.4 |
| 20260504035331 | 10 | 186 | 3.2 | 6.4 | 0.00 | 0.00 | 0.00 | 99 | 1012.3 |
| 20260504033830 | 10 | 183 | 6.4 | 6.4 | 0.00 | 0.00 | 0.00 | 99 | 1012.4 |
| 20260504032330 | 10 | 177 | 3.2 | 6.4 | 0.00 | 0.00 | 0.00 | 99 | 1012.2 |
| 20260504030830 | 10 | 194 | 3.2 | 3.2 | 0.00 | 0.00 | 0.00 | 99 | 1012.1 |
| 20260504025330 | 10 | 199 | 3.2 | 3.2 | 0.00 | 0.00 | 0.00 | 98 | 1012.0 |
| 20260504023830 | 10 | 203 | 3.2 | 3.2 | 0.00 | 0.00 | 0.00 | 99 | 1011.9 |
| 20260504022330 | 10 | 195 | 0.0 | 3.2 | 0.00 | 0.00 | 0.00 | 98 | 1011.8 |
| 20260504020829 | 10 | 196 | 0.0 | 3.2 | 0.00 | 0.00 | 0.00 | 99 | 1011.8 |
| 20260504015329 | 11 | 211 | 3.2 | 6.4 | 0.00 | 0.00 | 0.00 | 99 | 1011.8 |
| 20260504013829 | 11 | 217 | 3.2 | 6.4 | 0.00 | 0.00 | 0.00 | 99 | 1011.7 |